Year,Month,Day,Hour,Minute,Value (Times are PST for temperature in C)
2011,10,23,00,00,9.70
2011,10,23,00,01,9.70
2011,10,23,00,02,9.70
2011,10,23,00,03,9.70
2011,10,23,00,04,9.60
2011,10,23,00,05,9.60
2011,10,23,00,06,9.60
2011,10,23,00,07,9.60
2011,10,23,00,08,9.50
2011,10,23,00,09,9.50
2011,10,23,00,10,9.50
2011,10,23,00,11,9.40
2011,10,23,00,12,9.40
2011,10,23,00,13,9.40
2011,10,23,00,14,9.30
2011,10,23,00,15,9.30
2011,10,23,00,16,9.30
2011,10,23,00,17,9.20
2011,10,23,00,18,9.20
2011,10,23,00,19,9.10
2011,10,23,00,20,9.00
2011,10,23,00,21,9.00
2011,10,23,00,22,8.90
2011,10,23,00,23,8.90
2011,10,23,00,24,8.80
2011,10,23,00,25,8.80
2011,10,23,00,26,8.80
2011,10,23,00,27,8.80
2011,10,23,00,28,8.70
2011,10,23,00,29,8.70
2011,10,23,00,30,8.70
2011,10,23,00,31,8.70
2011,10,23,00,32,8.60
2011,10,23,00,33,8.60
2011,10,23,00,34,8.60
2011,10,23,00,35,8.50
2011,10,23,00,36,8.50
2011,10,23,00,37,8.50
2011,10,23,00,38,8.50
2011,10,23,00,39,8.40
2011,10,23,00,40,8.40
2011,10,23,00,41,8.30
2011,10,23,00,42,8.30
2011,10,23,00,43,8.20
2011,10,23,00,44,8.20
2011,10,23,00,45,8.10
2011,10,23,00,46,8.10
2011,10,23,00,47,8.10
2011,10,23,00,48,8.10
2011,10,23,00,49,8.10
2011,10,23,00,50,8.20
2011,10,23,00,51,8.30
2011,10,23,00,52,8.30
2011,10,23,00,53,8.30
2011,10,23,00,54,8.30
2011,10,23,00,55,8.30
2011,10,23,00,56,8.40
2011,10,23,00,57,8.50
2011,10,23,00,58,8.60
2011,10,23,00,59,8.70
2011,10,23,01,00,8.70
2011,10,23,01,01,8.80
2011,10,23,01,02,8.70
2011,10,23,01,03,8.60
2011,10,23,01,04,8.50
2011,10,23,01,05,8.30
2011,10,23,01,06,8.20
2011,10,23,01,07,8.00
2011,10,23,01,08,7.90
2011,10,23,01,09,7.90
2011,10,23,01,10,7.80
2011,10,23,01,11,7.80
2011,10,23,01,12,7.80
2011,10,23,01,13,7.80
2011,10,23,01,14,7.80
2011,10,23,01,15,7.70
2011,10,23,01,16,7.70
2011,10,23,01,17,7.70
2011,10,23,01,18,7.60
2011,10,23,01,19,7.60
2011,10,23,01,20,7.60
2011,10,23,01,21,7.70
2011,10,23,01,22,7.80
2011,10,23,01,23,8.00
2011,10,23,01,24,8.30
2011,10,23,01,25,8.50
2011,10,23,01,26,8.70
2011,10,23,01,27,8.80
2011,10,23,01,28,8.90
2011,10,23,01,29,9.00
2011,10,23,01,30,9.10
2011,10,23,01,31,9.10
2011,10,23,01,32,9.10
2011,10,23,01,33,9.10
2011,10,23,01,34,9.10
2011,10,23,01,35,9.00
2011,10,23,01,36,8.90
2011,10,23,01,37,8.70
2011,10,23,01,38,8.60
2011,10,23,01,39,8.40
2011,10,23,01,40,8.30
2011,10,23,01,41,8.20
2011,10,23,01,42,8.10
2011,10,23,01,43,8.00
2011,10,23,01,44,8.00
2011,10,23,01,45,7.90
2011,10,23,01,46,7.90
2011,10,23,01,47,7.90
2011,10,23,01,48,7.80
2011,10,23,01,49,7.80
2011,10,23,01,50,7.70
2011,10,23,01,51,7.70
2011,10,23,01,52,7.80
2011,10,23,01,53,7.90
2011,10,23,01,54,8.00
2011,10,23,01,55,8.10
2011,10,23,01,56,8.20
2011,10,23,01,57,8.20
2011,10,23,01,58,8.20
2011,10,23,01,59,8.20
2011,10,23,02,00,8.30
2011,10,23,02,01,8.30
2011,10,23,02,02,8.30
2011,10,23,02,03,8.40
2011,10,23,02,04,8.40
2011,10,23,02,05,8.40
2011,10,23,02,06,8.40
2011,10,23,02,07,8.40
2011,10,23,02,08,8.40
2011,10,23,02,09,8.40
2011,10,23,02,10,8.30
2011,10,23,02,11,8.30
2011,10,23,02,12,8.30
2011,10,23,02,13,8.30
2011,10,23,02,14,8.20
2011,10,23,02,15,8.10
2011,10,23,02,16,7.90
2011,10,23,02,17,7.80
2011,10,23,02,18,7.60
2011,10,23,02,19,7.50
2011,10,23,02,20,7.40
2011,10,23,02,21,7.30
2011,10,23,02,22,7.10
2011,10,23,02,23,7.00
2011,10,23,02,24,7.00
2011,10,23,02,25,6.90
2011,10,23,02,26,6.80
2011,10,23,02,27,6.80
2011,10,23,02,28,6.70
2011,10,23,02,29,6.70
2011,10,23,02,30,6.60
2011,10,23,02,31,6.60
2011,10,23,02,32,6.60
2011,10,23,02,33,6.60
2011,10,23,02,34,6.60
2011,10,23,02,35,6.60
2011,10,23,02,36,6.60
2011,10,23,02,37,6.70
2011,10,23,02,38,6.80
2011,10,23,02,39,6.90
2011,10,23,02,40,7.00
2011,10,23,02,41,7.10
2011,10,23,02,42,7.20
2011,10,23,02,43,7.20
2011,10,23,02,44,7.30
2011,10,23,02,45,7.30
2011,10,23,02,46,7.40
2011,10,23,02,47,7.40
2011,10,23,02,48,7.50
2011,10,23,02,49,7.60
2011,10,23,02,50,7.80
2011,10,23,02,51,7.90
2011,10,23,02,52,8.10
2011,10,23,02,53,8.30
2011,10,23,02,54,8.40
2011,10,23,02,55,8.50
2011,10,23,02,56,8.50
2011,10,23,02,57,8.50
2011,10,23,02,58,8.40
2011,10,23,02,59,8.40
2011,10,23,03,00,8.30
2011,10,23,03,01,8.30
2011,10,23,03,02,8.20
2011,10,23,03,03,8.20
2011,10,23,03,06,8.10
2011,10,23,03,07,8.10
2011,10,23,03,08,8.10
2011,10,23,03,09,8.10
2011,10,23,03,10,8.10
2011,10,23,03,11,8.10
2011,10,23,03,12,8.10
2011,10,23,03,13,8.00
2011,10,23,03,14,8.00
2011,10,23,03,15,7.90
2011,10,23,03,16,7.80
2011,10,23,03,17,7.60
2011,10,23,03,18,7.50
2011,10,23,03,19,7.40
2011,10,23,03,20,7.30
2011,10,23,03,21,7.20
2011,10,23,03,22,7.10
2011,10,23,03,23,7.00
2011,10,23,03,24,7.00
2011,10,23,03,25,7.00
2011,10,23,03,26,6.90
2011,10,23,03,27,6.90
2011,10,23,03,28,6.90
2011,10,23,03,29,6.80
2011,10,23,03,30,6.90
2011,10,23,03,31,7.00
2011,10,23,03,32,7.10
2011,10,23,03,33,7.10
2011,10,23,03,34,7.00
2011,10,23,03,35,7.00
2011,10,23,03,36,6.90
2011,10,23,03,37,6.90
2011,10,23,03,38,6.90
2011,10,23,03,39,6.80
2011,10,23,03,40,6.80
2011,10,23,03,41,6.70
2011,10,23,03,42,6.50
2011,10,23,03,43,6.40
2011,10,23,03,44,6.30
2011,10,23,03,45,6.20
2011,10,23,03,46,6.10
2011,10,23,03,47,6.10
2011,10,23,03,48,6.00
2011,10,23,03,49,5.90
2011,10,23,03,50,5.90
2011,10,23,03,51,5.80
2011,10,23,03,52,5.80
2011,10,23,03,53,5.70
2011,10,23,03,54,5.70
2011,10,23,03,55,5.70
2011,10,23,03,56,5.70
2011,10,23,03,57,5.70
2011,10,23,03,58,5.60
2011,10,23,03,59,5.60
2011,10,23,04,00,5.60
2011,10,23,04,01,5.60
2011,10,23,04,02,5.60
2011,10,23,04,03,5.70
2011,10,23,04,04,5.70
2011,10,23,04,05,5.70
2011,10,23,04,06,5.70
2011,10,23,04,07,5.70
2011,10,23,04,08,5.80
2011,10,23,04,09,5.80
2011,10,23,04,10,5.90
2011,10,23,04,11,6.00
2011,10,23,04,12,6.10
2011,10,23,04,13,6.20
2011,10,23,04,14,6.20
2011,10,23,04,15,6.10
2011,10,23,04,16,6.10
2011,10,23,04,17,6.00
2011,10,23,04,18,5.90
2011,10,23,04,19,5.90
2011,10,23,04,20,5.80
2011,10,23,04,21,5.80
2011,10,23,04,22,5.70
2011,10,23,04,23,5.70
2011,10,23,04,24,5.60
2011,10,23,04,25,5.60
2011,10,23,04,26,5.60
2011,10,23,04,27,5.60
2011,10,23,04,28,5.50
2011,10,23,04,29,5.50
2011,10,23,04,30,5.50
2011,10,23,04,31,5.40
2011,10,23,04,32,5.40
2011,10,23,04,33,5.40
2011,10,23,04,34,5.30
2011,10,23,04,35,5.30
2011,10,23,04,36,5.30
2011,10,23,04,37,5.30
2011,10,23,04,38,5.20
2011,10,23,04,39,5.20
2011,10,23,04,40,5.20
2011,10,23,04,41,5.10
2011,10,23,04,42,5.10
2011,10,23,04,43,5.00
2011,10,23,04,44,5.00
2011,10,23,04,45,4.90
2011,10,23,04,46,4.80
2011,10,23,04,47,4.80
2011,10,23,04,48,4.80
2011,10,23,04,49,4.80
2011,10,23,04,50,4.70
2011,10,23,04,51,4.70
2011,10,23,04,52,4.70
2011,10,23,04,53,4.70
2011,10,23,04,54,4.60
2011,10,23,04,55,4.60
2011,10,23,04,56,4.60
2011,10,23,04,57,4.60
2011,10,23,04,58,4.60
2011,10,23,04,59,4.70
2011,10,23,05,00,4.70
2011,10,23,05,01,4.70
2011,10,23,05,02,4.80
2011,10,23,05,03,4.80
2011,10,23,05,04,4.80
2011,10,23,05,05,4.90
2011,10,23,05,06,4.90
2011,10,23,05,07,5.00
2011,10,23,05,08,5.10
2011,10,23,05,09,5.20
2011,10,23,05,10,5.20
2011,10,23,05,11,5.20
2011,10,23,05,12,5.20
2011,10,23,05,13,5.20
2011,10,23,05,14,5.10
2011,10,23,05,15,5.10
2011,10,23,05,16,5.10
2011,10,23,05,17,5.10
2011,10,23,05,18,5.00
2011,10,23,05,19,5.00
2011,10,23,05,20,4.90
2011,10,23,05,21,4.90
2011,10,23,05,22,4.90
2011,10,23,05,23,4.90
2011,10,23,05,24,4.80
2011,10,23,05,25,4.80
2011,10,23,05,26,4.80
2011,10,23,05,27,4.80
2011,10,23,05,28,4.80
2011,10,23,05,29,4.70
2011,10,23,05,30,4.70
2011,10,23,05,31,4.70
2011,10,23,05,32,4.70
2011,10,23,05,33,4.70
2011,10,23,05,34,4.70
2011,10,23,05,35,4.70
2011,10,23,05,36,4.70
2011,10,23,05,37,4.60
2011,10,23,05,38,4.60
2011,10,23,05,39,4.60
2011,10,23,05,40,4.50
2011,10,23,05,41,4.60
2011,10,23,05,42,4.60
2011,10,23,05,43,4.60
2011,10,23,05,44,4.60
2011,10,23,05,45,4.60
2011,10,23,05,46,4.60
2011,10,23,05,47,4.60
2011,10,23,05,48,4.70
2011,10,23,05,49,4.80
2011,10,23,05,50,4.80
2011,10,23,05,51,4.80
2011,10,23,05,52,4.90
2011,10,23,05,53,4.90
2011,10,23,05,54,5.00
2011,10,23,05,55,5.00
2011,10,23,05,56,5.00
2011,10,23,05,57,4.90
2011,10,23,05,58,4.90
2011,10,23,05,59,4.80
2011,10,23,06,00,4.80
2011,10,23,06,01,4.80
2011,10,23,06,02,4.80
2011,10,23,06,03,4.80
2011,10,23,06,04,4.70
2011,10,23,06,05,4.70
2011,10,23,06,06,4.60
2011,10,23,06,07,4.50
2011,10,23,06,08,4.50
2011,10,23,06,09,4.50
2011,10,23,06,10,4.60
2011,10,23,06,11,4.60
2011,10,23,06,12,4.60
2011,10,23,06,13,4.70
2011,10,23,06,14,4.70
2011,10,23,06,15,4.70
2011,10,23,06,16,4.70
2011,10,23,06,17,4.70
2011,10,23,06,18,4.70
2011,10,23,06,19,4.70
2011,10,23,06,20,4.60
2011,10,23,06,21,4.60
2011,10,23,06,22,4.50
2011,10,23,06,23,4.40
2011,10,23,06,24,4.40
2011,10,23,06,25,4.30
2011,10,23,06,26,4.20
2011,10,23,06,27,4.20
2011,10,23,06,28,4.20
2011,10,23,06,29,4.20
2011,10,23,06,30,4.10
2011,10,23,06,31,4.10
2011,10,23,06,32,4.10
2011,10,23,06,33,4.10
2011,10,23,06,34,4.00
2011,10,23,06,35,4.00
2011,10,23,06,36,4.00
2011,10,23,06,37,3.90
2011,10,23,06,38,3.90
2011,10,23,06,39,3.90
2011,10,23,06,40,3.90
2011,10,23,06,41,3.90
2011,10,23,06,42,3.90
2011,10,23,06,43,3.90
2011,10,23,06,44,3.90
2011,10,23,06,45,3.90
2011,10,23,06,46,3.90
2011,10,23,06,47,3.90
2011,10,23,06,48,3.90
2011,10,23,06,49,3.90
2011,10,23,06,50,3.90
2011,10,23,06,51,3.90
2011,10,23,06,52,3.90
2011,10,23,06,53,3.90
2011,10,23,06,54,3.80
2011,10,23,06,55,3.80
2011,10,23,06,56,3.80
2011,10,23,06,57,3.70
2011,10,23,06,58,3.70
2011,10,23,06,59,3.70
2011,10,23,07,00,3.70
2011,10,23,07,01,3.60
2011,10,23,07,02,3.60
2011,10,23,07,03,3.60
2011,10,23,07,04,3.60
2011,10,23,07,05,3.60
2011,10,23,07,06,3.60
2011,10,23,07,07,3.60
2011,10,23,07,08,3.50
2011,10,23,07,09,3.50
2011,10,23,07,10,3.50
2011,10,23,07,11,3.40
2011,10,23,07,12,3.40
2011,10,23,07,13,3.40
2011,10,23,07,14,3.40
2011,10,23,07,15,3.50
2011,10,23,07,16,3.50
2011,10,23,07,17,3.50
2011,10,23,07,18,3.50
2011,10,23,07,19,3.50
2011,10,23,07,20,3.50
2011,10,23,07,21,3.50
2011,10,23,07,22,3.50
2011,10,23,07,23,3.50
2011,10,23,07,24,3.50
2011,10,23,07,25,3.40
2011,10,23,07,26,3.40
2011,10,23,07,27,3.40
2011,10,23,07,28,3.40
2011,10,23,07,29,3.40
2011,10,23,07,30,3.40
2011,10,23,07,31,3.30
2011,10,23,07,32,3.30
2011,10,23,07,33,3.30
2011,10,23,07,34,3.30
2011,10,23,07,35,3.30
2011,10,23,07,36,3.20
2011,10,23,07,37,3.20
2011,10,23,07,38,3.20
2011,10,23,07,39,3.20
2011,10,23,07,40,3.20
2011,10,23,07,41,3.10
2011,10,23,07,42,3.10
2011,10,23,07,43,3.10
2011,10,23,07,44,3.10
2011,10,23,07,45,3.10
2011,10,23,07,46,3.10
2011,10,23,07,47,3.10
2011,10,23,07,48,3.10
2011,10,23,07,49,3.10
2011,10,23,07,50,3.10
2011,10,23,07,51,3.20
2011,10,23,07,52,3.30
2011,10,23,07,53,3.30
2011,10,23,07,54,3.30
2011,10,23,07,55,3.30
2011,10,23,07,56,3.20
2011,10,23,07,57,3.20
2011,10,23,07,58,3.20
2011,10,23,07,59,3.20
2011,10,23,08,00,3.10
2011,10,23,08,01,3.10
2011,10,23,08,02,3.10
2011,10,23,08,03,3.10
2011,10,23,08,04,3.10
2011,10,23,08,05,3.10
2011,10,23,08,06,3.10
2011,10,23,08,07,3.10
2011,10,23,08,08,3.20
2011,10,23,08,09,3.20
2011,10,23,08,10,3.20
2011,10,23,08,11,3.20
2011,10,23,08,12,3.20
2011,10,23,08,13,3.20
2011,10,23,08,14,3.20
2011,10,23,08,15,3.20
2011,10,23,08,16,3.20
2011,10,23,08,17,3.20
2011,10,23,08,18,3.20
2011,10,23,08,19,3.30
2011,10,23,08,20,3.30
2011,10,23,08,21,3.30
2011,10,23,08,22,3.40
2011,10,23,08,23,3.40
2011,10,23,08,24,3.40
2011,10,23,08,25,3.40
2011,10,23,08,26,3.50
2011,10,23,08,27,3.50
2011,10,23,08,28,3.60
2011,10,23,08,29,3.60
2011,10,23,08,30,3.60
2011,10,23,08,31,3.60
2011,10,23,08,32,3.70
2011,10,23,08,33,3.70
2011,10,23,08,34,3.70
2011,10,23,08,35,3.70
2011,10,23,08,36,3.80
2011,10,23,08,37,3.80
2011,10,23,08,38,3.80
2011,10,23,08,39,3.80
2011,10,23,08,40,3.80
2011,10,23,08,41,3.80
2011,10,23,08,42,3.80
2011,10,23,08,43,3.90
2011,10,23,08,44,3.90
2011,10,23,08,45,4.00
2011,10,23,08,46,4.00
2011,10,23,08,47,4.10
2011,10,23,08,48,4.20
2011,10,23,08,49,4.20
2011,10,23,08,50,4.30
2011,10,23,08,51,4.30
2011,10,23,08,52,4.40
2011,10,23,08,53,4.40
2011,10,23,08,54,4.50
2011,10,23,08,55,4.50
2011,10,23,08,56,4.60
2011,10,23,08,57,4.60
2011,10,23,08,58,4.70
2011,10,23,08,59,4.70
2011,10,23,09,00,4.80
2011,10,23,09,01,4.80
2011,10,23,09,02,4.90
2011,10,23,09,03,4.90
2011,10,23,09,04,5.00
2011,10,23,09,05,5.10
2011,10,23,09,06,5.10
2011,10,23,09,07,5.20
2011,10,23,09,08,5.20
2011,10,23,09,09,5.30
2011,10,23,09,10,5.30
2011,10,23,09,11,5.40
2011,10,23,09,12,5.40
2011,10,23,09,13,5.50
2011,10,23,09,14,5.50
2011,10,23,09,15,5.60
2011,10,23,09,16,5.60
2011,10,23,09,17,5.70
2011,10,23,09,18,5.80
2011,10,23,09,19,5.80
2011,10,23,09,20,5.90
2011,10,23,09,21,5.90
2011,10,23,09,22,5.90
2011,10,23,09,23,6.00
2011,10,23,09,24,6.00
2011,10,23,09,25,6.10
2011,10,23,09,26,6.10
2011,10,23,09,27,6.10
2011,10,23,09,28,6.20
2011,10,23,09,29,6.20
2011,10,23,09,30,6.20
2011,10,23,09,31,6.20
2011,10,23,09,32,6.20
2011,10,23,09,33,6.30
2011,10,23,09,34,6.30
2011,10,23,09,35,6.30
2011,10,23,09,36,6.40
2011,10,23,09,37,6.40
2011,10,23,09,38,6.40
2011,10,23,09,39,6.50
2011,10,23,09,40,6.50
2011,10,23,09,41,6.60
2011,10,23,09,42,6.60
2011,10,23,09,43,6.70
2011,10,23,09,44,6.70
2011,10,23,09,45,6.80
2011,10,23,09,46,6.80
2011,10,23,09,47,6.90
2011,10,23,09,48,6.90
2011,10,23,09,49,7.00
2011,10,23,09,50,7.00
2011,10,23,09,51,7.10
2011,10,23,09,52,7.10
2011,10,23,09,53,7.10
2011,10,23,09,54,7.20
2011,10,23,09,55,7.20
2011,10,23,09,56,7.20
2011,10,23,09,57,7.30
2011,10,23,09,58,7.30
2011,10,23,09,59,7.40
2011,10,23,10,00,7.40
2011,10,23,10,01,7.50
2011,10,23,10,02,7.50
2011,10,23,10,03,7.60
2011,10,23,10,04,7.70
2011,10,23,10,05,7.80
2011,10,23,10,06,7.80
2011,10,23,10,07,7.90
2011,10,23,10,08,8.00
2011,10,23,10,09,8.10
2011,10,23,10,10,8.10
2011,10,23,10,11,8.20
2011,10,23,10,12,8.30
2011,10,23,10,13,8.30
2011,10,23,10,14,8.40
2011,10,23,10,15,8.50
2011,10,23,10,16,8.50
2011,10,23,10,17,8.60
2011,10,23,10,18,8.70
2011,10,23,10,19,8.70
2011,10,23,10,20,8.80
2011,10,23,10,21,8.80
2011,10,23,10,22,8.90
2011,10,23,10,23,8.90
2011,10,23,10,24,9.00
2011,10,23,10,25,9.00
2011,10,23,10,26,9.10
2011,10,23,10,27,9.10
2011,10,23,10,28,9.20
2011,10,23,10,29,9.20
2011,10,23,10,30,9.20
2011,10,23,10,31,9.30
2011,10,23,10,32,9.30
2011,10,23,10,33,9.40
2011,10,23,10,34,9.40
2011,10,23,10,35,9.50
2011,10,23,10,36,9.50
2011,10,23,10,37,9.60
2011,10,23,10,38,9.60
2011,10,23,10,39,9.70
2011,10,23,10,40,9.80
2011,10,23,10,41,9.80
2011,10,23,10,42,9.90
2011,10,23,10,43,10.00
2011,10,23,10,44,10.20
2011,10,23,10,45,10.30
2011,10,23,10,46,10.40
2011,10,23,10,47,10.40
2011,10,23,10,48,10.50
2011,10,23,10,49,10.50
2011,10,23,10,50,10.60
2011,10,23,10,51,10.60
2011,10,23,10,52,10.70
2011,10,23,10,53,10.80
2011,10,23,10,54,10.80
2011,10,23,10,55,10.90
2011,10,23,10,56,10.90
2011,10,23,10,57,11.00
2011,10,23,10,58,11.00
2011,10,23,10,59,11.10
2011,10,23,11,00,11.20
2011,10,23,11,01,11.20
2011,10,23,11,02,11.20
2011,10,23,11,03,11.20
2011,10,23,11,04,11.20
2011,10,23,11,05,11.10
2011,10,23,11,06,11.20
2011,10,23,11,07,11.20
2011,10,23,11,08,11.20
2011,10,23,11,09,11.20
2011,10,23,11,10,11.20
2011,10,23,11,11,11.20
2011,10,23,11,12,11.20
2011,10,23,11,13,11.20
2011,10,23,11,14,11.20
2011,10,23,11,15,11.10
2011,10,23,11,16,11.00
2011,10,23,11,17,10.90
2011,10,23,11,18,10.80
2011,10,23,11,19,10.80
2011,10,23,11,20,10.70
2011,10,23,11,21,10.70
2011,10,23,11,22,10.70
2011,10,23,11,23,10.70
2011,10,23,11,24,10.70
2011,10,23,11,25,10.80
2011,10,23,11,26,10.80
2011,10,23,11,27,10.90
2011,10,23,11,28,10.90
2011,10,23,11,29,10.90
2011,10,23,11,30,10.90
2011,10,23,11,31,11.00
2011,10,23,11,32,11.00
2011,10,23,11,33,11.00
2011,10,23,11,34,11.10
2011,10,23,11,35,11.10
2011,10,23,11,36,11.10
2011,10,23,11,37,11.10
2011,10,23,11,38,11.10
2011,10,23,11,39,11.10
2011,10,23,11,40,11.10
2011,10,23,11,41,11.20
2011,10,23,11,42,11.20
2011,10,23,11,43,11.20
2011,10,23,11,44,11.20
2011,10,23,11,45,11.20
2011,10,23,11,46,11.20
2011,10,23,11,47,11.20
2011,10,23,11,48,11.20
2011,10,23,11,49,11.20
2011,10,23,11,50,11.20
2011,10,23,11,51,11.20
2011,10,23,11,52,11.20
2011,10,23,11,53,11.20
2011,10,23,11,54,11.20
2011,10,23,11,55,11.20
2011,10,23,11,56,11.20
2011,10,23,11,57,11.20
2011,10,23,11,58,11.20
2011,10,23,11,59,11.20
2011,10,23,12,00,11.20
2011,10,23,12,01,11.20
2011,10,23,12,02,11.30
2011,10,23,12,03,11.30
2011,10,23,12,04,11.30
2011,10,23,12,05,11.30
2011,10,23,12,06,11.40
2011,10,23,12,07,11.40
2011,10,23,12,08,11.40
2011,10,23,12,09,11.40
2011,10,23,12,10,11.50
2011,10,23,12,11,11.60
2011,10,23,12,12,11.60
2011,10,23,12,13,11.70
2011,10,23,12,14,11.80
2011,10,23,12,15,11.90
2011,10,23,12,16,11.90
2011,10,23,12,17,11.90
2011,10,23,12,18,11.90
2011,10,23,12,19,11.90
2011,10,23,12,20,11.90
2011,10,23,12,21,11.90
2011,10,23,12,22,11.90
2011,10,23,12,23,11.90
2011,10,23,12,24,11.90
2011,10,23,12,25,11.90
2011,10,23,12,26,11.90
2011,10,23,12,27,11.80
2011,10,23,12,28,11.80
2011,10,23,12,29,11.70
2011,10,23,12,30,11.70
2011,10,23,12,31,11.70
2011,10,23,12,32,11.70
2011,10,23,12,33,11.70
2011,10,23,12,34,11.70
2011,10,23,12,35,11.80
2011,10,23,12,36,11.90
2011,10,23,12,37,11.90
2011,10,23,12,38,12.00
2011,10,23,12,39,12.10
2011,10,23,12,40,12.20
2011,10,23,12,41,12.30
2011,10,23,12,42,12.30
2011,10,23,12,43,12.20
2011,10,23,12,44,12.20
2011,10,23,12,45,12.10
2011,10,23,12,46,12.10
2011,10,23,12,47,12.10
2011,10,23,12,48,12.10
2011,10,23,12,49,12.20
2011,10,23,12,50,12.10
2011,10,23,12,51,12.10
2011,10,23,12,52,12.10
2011,10,23,12,53,12.10
2011,10,23,12,54,12.10
2011,10,23,12,55,12.10
2011,10,23,12,56,12.10
2011,10,23,12,57,12.10
2011,10,23,12,58,12.10
2011,10,23,12,59,12.10
2011,10,23,13,00,12.10
2011,10,23,13,01,12.10
2011,10,23,13,02,12.00
2011,10,23,13,03,12.00
2011,10,23,13,04,12.00
2011,10,23,13,05,12.10
2011,10,23,13,06,12.20
2011,10,23,13,07,12.20
2011,10,23,13,08,12.20
2011,10,23,13,09,12.20
2011,10,23,13,10,12.30
2011,10,23,13,11,12.40
2011,10,23,13,12,12.40
2011,10,23,13,13,12.40
2011,10,23,13,14,12.40
2011,10,23,13,15,12.40
2011,10,23,13,16,12.40
2011,10,23,13,17,12.40
2011,10,23,13,18,12.40
2011,10,23,13,19,12.50
2011,10,23,13,20,12.50
2011,10,23,13,21,12.60
2011,10,23,13,22,12.60
2011,10,23,13,23,12.60
2011,10,23,13,24,12.60
2011,10,23,13,25,12.70
2011,10,23,13,26,12.70
2011,10,23,13,27,12.80
2011,10,23,13,28,12.80
2011,10,23,13,29,12.90
2011,10,23,13,30,12.90
2011,10,23,13,31,13.00
2011,10,23,13,32,13.00
2011,10,23,13,33,13.10
2011,10,23,13,34,13.10
2011,10,23,13,35,13.10
2011,10,23,13,36,13.10
2011,10,23,13,37,13.20
2011,10,23,13,38,13.20
2011,10,23,13,39,13.20
2011,10,23,13,40,13.30
2011,10,23,13,41,13.30
2011,10,23,13,42,13.40
2011,10,23,13,43,13.40
2011,10,23,13,44,13.30
2011,10,23,13,45,13.30
2011,10,23,13,46,13.20
2011,10,23,13,47,13.10
2011,10,23,13,48,13.00
2011,10,23,13,49,13.00
2011,10,23,13,50,13.00
2011,10,23,13,51,13.10
2011,10,23,13,52,13.10
2011,10,23,13,53,13.20
2011,10,23,13,54,13.20
2011,10,23,13,55,13.20
2011,10,23,13,56,13.20
2011,10,23,13,57,13.10
2011,10,23,13,58,13.10
2011,10,23,13,59,13.00
2011,10,23,14,00,13.00
2011,10,23,14,01,13.00
2011,10,23,14,02,12.90
2011,10,23,14,03,12.90
2011,10,23,14,04,12.90
2011,10,23,14,05,12.90
2011,10,23,14,06,12.90
2011,10,23,14,07,12.80
2011,10,23,14,08,12.80
2011,10,23,14,09,12.80
2011,10,23,14,10,12.70
2011,10,23,14,11,12.80
2011,10,23,14,12,12.80
2011,10,23,14,13,12.80
2011,10,23,14,14,12.80
2011,10,23,14,15,12.80
2011,10,23,14,16,12.80
2011,10,23,14,17,12.80
2011,10,23,14,18,12.70
2011,10,23,14,19,12.70
2011,10,23,14,20,12.70
2011,10,23,14,21,12.70
2011,10,23,14,22,12.70
2011,10,23,14,23,12.80
2011,10,23,14,24,12.80
2011,10,23,14,25,12.80
2011,10,23,14,26,12.80
2011,10,23,14,27,12.80
2011,10,23,14,28,12.80
2011,10,23,14,29,12.80
2011,10,23,14,30,12.70
2011,10,23,14,31,12.70
2011,10,23,14,32,12.70
2011,10,23,14,33,12.70
2011,10,23,14,34,12.70
2011,10,23,14,35,12.70
2011,10,23,14,36,12.60
2011,10,23,14,37,12.50
2011,10,23,14,38,12.50
2011,10,23,14,39,12.50
2011,10,23,14,40,12.40
2011,10,23,14,41,12.30
2011,10,23,14,42,12.30
2011,10,23,14,43,12.30
2011,10,23,14,44,12.30
2011,10,23,14,45,12.30
2011,10,23,14,46,12.30
2011,10,23,14,47,12.20
2011,10,23,14,48,12.10
2011,10,23,14,49,12.10
2011,10,23,14,50,12.00
2011,10,23,14,51,12.00
2011,10,23,14,52,11.90
2011,10,23,14,53,11.90
2011,10,23,14,54,11.90
2011,10,23,14,55,11.80
2011,10,23,14,56,11.80
2011,10,23,14,57,11.80
2011,10,23,14,58,11.80
2011,10,23,14,59,11.70
2011,10,23,15,00,11.70
2011,10,23,15,01,11.70
2011,10,23,15,02,11.70
2011,10,23,15,03,11.80
2011,10,23,15,04,11.80
2011,10,23,15,05,11.80
2011,10,23,15,06,11.80
2011,10,23,15,07,11.80
2011,10,23,15,08,11.80
2011,10,23,15,09,11.80
2011,10,23,15,10,11.70
2011,10,23,15,11,11.70
2011,10,23,15,12,11.70
2011,10,23,15,13,11.70
2011,10,23,15,14,11.60
2011,10,23,15,15,11.60
2011,10,23,15,16,11.50
2011,10,23,15,17,11.50
2011,10,23,15,18,11.50
2011,10,23,15,19,11.50
2011,10,23,15,20,11.40
2011,10,23,15,21,11.40
2011,10,23,15,22,11.40
2011,10,23,15,23,11.40
2011,10,23,15,24,11.40
2011,10,23,15,25,11.40
2011,10,23,15,26,11.40
2011,10,23,15,27,11.30
2011,10,23,15,28,11.30
2011,10,23,15,29,11.30
2011,10,23,15,30,11.30
2011,10,23,15,31,11.30
2011,10,23,15,32,11.20
2011,10,23,15,33,11.20
2011,10,23,15,34,11.30
2011,10,23,15,35,11.30
2011,10,23,15,36,11.30
2011,10,23,15,37,11.40
2011,10,23,15,38,11.40
2011,10,23,15,39,11.40
2011,10,23,15,40,11.40
2011,10,23,15,41,11.40
2011,10,23,15,42,11.40
2011,10,23,15,43,11.50
2011,10,23,15,44,11.50
2011,10,23,15,45,11.60
2011,10,23,15,46,11.60
2011,10,23,15,47,11.70
2011,10,23,15,48,11.70
2011,10,23,15,49,11.80
2011,10,23,15,50,11.80
2011,10,23,15,51,11.80
2011,10,23,15,52,11.80
2011,10,23,15,53,11.80
2011,10,23,15,54,11.80
2011,10,23,15,55,11.80
2011,10,23,15,56,11.80
2011,10,23,15,57,11.80
2011,10,23,15,58,11.80
2011,10,23,15,59,11.70
2011,10,23,16,00,11.60
2011,10,23,16,01,11.60
2011,10,23,16,02,11.60
2011,10,23,16,03,11.60
2011,10,23,16,04,11.50
2011,10,23,16,05,11.50
2011,10,23,16,06,11.50
2011,10,23,16,07,11.50
2011,10,23,16,08,11.50
2011,10,23,16,09,11.50
2011,10,23,16,10,11.50
2011,10,23,16,11,11.50
2011,10,23,16,12,11.60
2011,10,23,16,13,11.60
2011,10,23,16,14,11.70
2011,10,23,16,15,11.70
2011,10,23,16,16,11.80
2011,10,23,16,17,11.80
2011,10,23,16,18,11.90
2011,10,23,16,19,12.00
2011,10,23,16,20,12.00
2011,10,23,16,21,12.00
2011,10,23,16,22,12.10
2011,10,23,16,23,12.10
2011,10,23,16,24,12.10
2011,10,23,16,25,12.20
2011,10,23,16,26,12.20
2011,10,23,16,27,12.20
2011,10,23,16,28,12.30
2011,10,23,16,29,12.30
2011,10,23,16,30,12.30
2011,10,23,16,31,12.30
2011,10,23,16,32,12.30
2011,10,23,16,33,12.30
2011,10,23,16,34,12.30
2011,10,23,16,35,12.40
2011,10,23,16,36,12.40
2011,10,23,16,37,12.50
2011,10,23,16,38,12.50
2011,10,23,16,39,12.60
2011,10,23,16,40,12.60
2011,10,23,16,41,12.70
2011,10,23,16,42,12.70
2011,10,23,16,43,12.70
2011,10,23,16,44,12.70
2011,10,23,16,45,12.60
2011,10,23,16,46,12.60
2011,10,23,16,47,12.60
2011,10,23,16,48,12.50
2011,10,23,16,49,12.50
2011,10,23,16,50,12.40
2011,10,23,16,51,12.40
2011,10,23,16,52,12.30
2011,10,23,16,53,12.30
2011,10,23,16,54,12.20
2011,10,23,16,55,12.10
2011,10,23,16,56,12.10
2011,10,23,16,57,12.00
2011,10,23,16,58,11.90
2011,10,23,16,59,11.90
2011,10,23,17,00,11.80
2011,10,23,17,01,11.80
2011,10,23,17,02,11.80
2011,10,23,17,03,11.70
2011,10,23,17,04,11.70
2011,10,23,17,05,11.70
2011,10,23,17,06,11.70
2011,10,23,17,07,11.70
2011,10,23,17,08,11.70
2011,10,23,17,09,11.70
2011,10,23,17,10,11.70
2011,10,23,17,11,11.70
2011,10,23,17,12,11.70
2011,10,23,17,13,11.70
2011,10,23,17,14,11.70
2011,10,23,17,15,11.80
2011,10,23,17,16,11.80
2011,10,23,17,17,11.80
2011,10,23,17,18,11.80
2011,10,23,17,19,11.80
2011,10,23,17,20,11.90
2011,10,23,17,21,11.90
2011,10,23,17,22,11.90
2011,10,23,17,23,11.90
2011,10,23,17,24,11.90
2011,10,23,17,25,11.90
2011,10,23,17,26,11.80
2011,10,23,17,27,11.80
2011,10,23,17,28,11.80
2011,10,23,17,29,11.80
2011,10,23,17,30,11.80
2011,10,23,17,31,11.80
2011,10,23,17,32,11.80
2011,10,23,17,33,11.80
2011,10,23,17,34,11.70
2011,10,23,17,35,11.70
2011,10,23,17,36,11.70
2011,10,23,17,37,11.70
2011,10,23,17,38,11.70
2011,10,23,17,39,11.60
2011,10,23,17,40,11.60
2011,10,23,17,41,11.60
2011,10,23,17,42,11.60
2011,10,23,17,43,11.60
2011,10,23,17,44,11.60
2011,10,23,17,45,11.50
2011,10,23,17,46,11.50
2011,10,23,17,47,11.40
2011,10,23,17,48,11.40
2011,10,23,17,49,11.30